Simultaneous Nadir Overpasses (SNOs) Predictions

Prediction of SNOs between GOES-14 and NOAA-20 Satellite Orbit:

Table of predicted SNOs for the next 14.0 days since TLE Epoch: 7/20/2024
Index Date Time (GOES-14) GOES-14 Lat,Lon NOAA-20 Lat,Lon Distance(km) Time Diff (sec)
1 07/20/2024 08:42:30 -0.29,-108.49 0.00,-109.86 155.25 80
2 07/21/2024 08:26:26 -0.27,-108.49 -1.01,-105.33 360.50 80
3 07/22/2024 20:45:43 0.31,-108.44 -0.17,-110.64 250.97 80
4 07/23/2024 20:29:38 0.29,-108.44 0.79,-106.10 265.43 80
5 07/25/2024 08:48:46 -0.33,-108.48 0.34,-111.38 331.70 80
6 07/26/2024 08:32:42 -0.31,-108.47 -0.67,-106.86 184.30 80
7 07/27/2024 20:51:59 0.35,-108.42 -0.49,-112.17 427.89 80
8 07/28/2024 20:35:55 0.33,-108.42 0.53,-107.65 88.40 80
9 07/31/2024 08:38:57 -0.36,-108.45 -0.38,-108.39 7.49 80
10 08/02/2024 20:39:29 0.38,-108.38 0.20,-109.17 89.66 80
